Location: Launay
(47.2429°N, 1.5727°E)
Time: 18:06:02
(UTC+00:00)

Cosmos 1346 Rocket - Pass Details

Date: 19 May 2025
Orbit: 485 x 499 km, 81.2° (Epoch: 23 June)

Event Time Altitude Azimuth Distance (km) Brightness Sun altitude
Rises 21:07:31 0° 345° (NNW) 2,585 7.6 -13.5°
Reaches altitude 10° 21:09:39 10° 342° (NNW) 1,695 6.5 -13.7°
Maximum altitude 21:13:19 60° 263° (W) 568 3.0 -14.1°
Enters shadow 21:15:54 18° 186° (S) 1,261 4.2 -14.4°
